| time (UTC) | temp F | wind direction | speed MPH | gust MPH | rain 1hr in | rain 24hr in | rain mn in | humidity % | barometer mb |
| 20260906234559 | 89 | 314 | 1.0 | 6.0 | 0.00 | 0.01 | 0.01 | 45 | 1010.9 |
| 20260906233053 | 89 | 359 | 2.0 | 6.0 | 0.00 | 0.01 | 0.01 | 46 | 1010.9 |
| 20260906231554 | 89 | 338 | 2.0 | 7.0 | 0.00 | 0.01 | 0.01 | 47 | 1010.9 |
| 20260906224601 | 87 | 343 | 2.0 | 7.0 | 0.00 | 0.01 | 0.01 | 51 | 1011.3 |
| 20260906223056 | 87 | 358 | 1.0 | 6.0 | 0.00 | 0.01 | 0.01 | 52 | 1011.3 |
| 20260906221554 | 88 | 309 | 2.0 | 5.0 | 0.00 | 0.01 | 0.01 | 51 | 1011.4 |
| 20260906220104 | 88 | 307 | 1.0 | 5.0 | 0.00 | 0.01 | 0.01 | 52 | 1011.6 |
| 20260906214558 | 87 | 319 | 3.0 | 7.0 | 0.00 | 0.01 | 0.01 | 53 | 1011.7 |
| 20260906213101 | 87 | 349 | 3.0 | 5.0 | 0.00 | 0.01 | 0.01 | 55 | 1011.9 |
| 20260906211600 | 87 | 6 | 3.0 | 6.0 | 0.00 | 0.01 | 0.01 | 55 | 1012.0 |
| 20260906210105 | 87 | 298 | 3.0 | 8.0 | 0.00 | 0.01 | 0.01 | 56 | 1012.1 |
| 20260906204606 | 86 | 299 | 3.0 | 7.0 | 0.00 | 0.01 | 0.01 | 57 | 1012.5 |
| 20260906203053 | 85 | 62 | 3.0 | 8.0 | 0.00 | 0.01 | 0.01 | 60 | 1012.7 |
| 20260906201605 | 83 | 301 | 2.0 | 8.0 | 0.00 | 0.01 | 0.01 | 65 | 1012.9 |
| 20260906200106 | 81 | 322 | 2.0 | 9.0 | 0.00 | 0.01 | 0.01 | 67 | 1013.1 |
| 20260906194557 | 80 | 256 | 2.0 | 3.0 | 0.00 | 0.01 | 0.01 | 70 | 1013.4 |
| 20260906193058 | 79 | 321 | 1.0 | 3.0 | 0.00 | 0.01 | 0.01 | 73 | 1013.6 |
| 20260906191601 | 78 | 258 | 1.0 | 2.0 | 0.00 | 0.01 | 0.01 | 74 | 1013.7 |
| 20260906190113 | 78 | 316 | 1.0 | 4.0 | 0.00 | 0.01 | 0.01 | 74 | 1013.8 |
| 20260906184606 | 77 | 326 | 1.0 | 2.0 | 0.01 | 0.01 | 0.01 | 76 | 1013.9 |
| 20260906183058 | 76 | 51 | 1.0 | 4.0 | 0.01 | 0.01 | 0.01 | 76 | 1014.0 |
| 20260906181602 | 76 | 0 | 0.0 | 2.0 | 0.01 | 0.01 | 0.01 | 76 | 1014.1 |
| 20260906180115 | 76 | 333 | 0.0 | 5.0 | 0.01 | 0.01 | 0.01 | 74 | 1014.1 |
| 20260906174601 | 77 | 0 | 1.0 | 4.0 | 0.00 | 0.00 | 0.00 | 71 | 1014.0 |
| 20260906173105 | 77 | 334 | 2.0 | 4.0 | 0.00 | 0.00 | 0.00 | 69 | 1013.9 |
| 20260906171556 | 78 | 328 | 0.0 | 1.0 | 0.00 | 0.00 | 0.00 | 70 | 1013.9 |
| 20260906170106 | 77 | 316 | 0.0 | 0.0 | 0.00 | 0.00 | 0.00 | 71 | 1013.6 |
| 20260906164602 | 76 | 0 | 0.0 | 2.0 | 0.00 | 0.00 | 0.00 | 71 | 1013.4 |
| 20260906163103 | 76 | 327 | 1.0 | 2.0 | 0.00 | 0.00 | 0.00 | 70 | 1013.3 |
| 20260906161557 | 76 | 0 | 0.0 | 0.0 | 0.00 | 0.00 | 0.00 | 72 | 1013.4 |
| 20260906160114 | 75 | 0 | 1.0 | 2.0 | 0.00 | 0.00 | 0.00 | 73 | 1013.4 |
| 20260906154604 | 75 | 0 | 0.0 | 0.0 | 0.00 | 0.00 | 0.00 | 74 | 1013.5 |
| 20260906153104 | 74 | 0 | 0.0 | 0.0 | 0.00 | 0.00 | 0.00 | 77 | 1013.5 |
| 20260906151556 | 74 | 0 | 0.0 | 0.0 | 0.00 | 0.00 | 0.00 | 77 | 1013.4 |
| 20260906150105 | 73 | 0 | 0.0 | 0.0 | 0.00 | 0.00 | 0.00 | 76 | 1013.3 |
| 20260906144601 | 73 | 0 | 0.0 | 0.0 | 0.00 | 0.00 | 0.00 | 76 | 1013.2 |
| 20260906143059 | 73 | 0 | 0.0 | 0.0 | 0.00 | 0.00 | 0.00 | 76 | 1013.2 |
| 20260906141554 | 72 | 0 | 0.0 | 0.0 | 0.00 | 0.00 | 0.00 | 76 | 1012.9 |
| 20260906134601 | 72 | 0 | 0.0 | 0.0 | 0.00 | 0.00 | 0.00 | 75 | 1012.4 |
| 20260906133112 | 72 | 0 | 0.0 | 0.0 | 0.00 | 0.00 | 0.00 | 75 | 1012.2 |
| 20260906131555 | 72 | 0 | 0.0 | 0.0 | 0.00 | 0.00 | 0.00 | 74 | 1012.1 |
| 20260906130109 | 71 | 0 | 0.0 | 0.0 | 0.00 | 0.00 | 0.00 | 73 | 1012.0 |
| 20260906124610 | 71 | 0 | 0.0 | 0.0 | 0.00 | 0.00 | 0.00 | 73 | 1012.0 |
| 20260906123055 | 71 | 252 | 0.0 | 1.0 | 0.00 | 0.00 | 0.00 | 73 | 1011.9 |
| 20260906121602 | 71 | 0 | 0.0 | 0.0 | 0.00 | 0.00 | 0.00 | 71 | 1012.1 |
| 20260906114606 | 70 | 0 | 0.0 | 1.0 | 0.00 | 0.00 | 0.00 | 73 | 1012.2 |
| 20260906113054 | 70 | 0 | 0.0 | 0.0 | 0.00 | 0.00 | 0.00 | 74 | 1012.1 |
| 20260906111603 | 70 | 0 | 0.0 | 1.0 | 0.00 | 0.00 | 0.00 | 73 | 1012.3 |
| 20260906110100 | 71 | 0 | 0.0 | 1.0 | 0.00 | 0.00 | 0.00 | 73 | 1012.4 |
| 20260906104630 | 70 | 0 | 0.0 | 0.0 | 0.00 | 0.00 | 0.00 | 70 | 1012.3 |
| 20260906103054 | 70 | 0 | 0.0 | 0.0 | 0.00 | 0.00 | 0.00 | 73 | 1012.4 |
| 20260906101603 | 71 | 0 | 0.0 | 0.0 | 0.00 | 0.00 | 0.00 | 74 | 1012.2 |
| 20260906100056 | 71 | 0 | 0.0 | 0.0 | 0.00 | 0.00 | 0.00 | 72 | 1012.4 |
| 20260906094555 | 71 | 0 | 0.0 | 0.0 | 0.00 | 0.00 | 0.00 | 70 | 1012.4 |
| 20260906093113 | 71 | 0 | 0.0 | 1.0 | 0.00 | 0.00 | 0.00 | 68 | 1012.4 |
| 20260906091558 | 71 | 0 | 0.0 | 0.0 | 0.00 | 0.00 | 0.00 | 71 | 1012.3 |
| 20260906090100 | 71 | 0 | 0.0 | 0.0 | 0.00 | 0.00 | 0.00 | 70 | 1012.5 |
| 20260906084556 | 71 | 0 | 0.0 | 0.0 | 0.00 | 0.00 | 0.00 | 68 | 1012.7 |
| 20260906083053 | 71 | 0 | 0.0 | 0.0 | 0.00 | 0.00 | 0.00 | 67 | 1012.7 |
| 20260906081600 | 72 | 0 | 0.0 | 1.0 | 0.00 | 0.00 | 0.00 | 63 | 1012.8 |
| 20260906080059 | 73 | 240 | 0.0 | 0.0 | 0.00 | 0.00 | 0.00 | 54 | 1012.8 |
| 20260906074556 | 74 | 0 | 0.0 | 0.0 | 0.00 | 0.00 | 0.00 | 46 | 1012.8 |
| 20260906073106 | 74 | 0 | 0.0 | 0.0 | 0.00 | 0.00 | 0.00 | 47 | 1012.9 |
| 20260906071601 | 75 | 0 | 0.0 | 0.0 | 0.00 | 0.00 | 0.00 | 45 | 1012.9 |
| 20260906070057 | 75 | 0 | 0.0 | 0.0 | 0.00 | 0.00 | 0.00 | 43 | 1012.8 |
| 20260906064554 | 75 | 0 | 0.0 | 0.0 | 0.00 | 0.00 | 0.00 | 44 | 1012.7 |
| 20260906063056 | 75 | 0 | 0.0 | 0.0 | 0.00 | 0.00 | 0.00 | 42 | 1012.7 |
| 20260906061601 | 75 | 0 | 0.0 | 1.0 | 0.00 | 0.00 | 0.00 | 42 | 1012.9 |
| 20260906060053 | 75 | 0 | 0.0 | 0.0 | 0.00 | 0.00 | 0.00 | 44 | 1012.5 |
| 20260906054608 | 76 | 0 | 0.0 | 0.0 | 0.00 | 0.00 | 0.00 | 44 | 1012.8 |
| 20260906053056 | 76 | 0 | 0.0 | 0.0 | 0.00 | 0.00 | 0.00 | 42 | 1012.9 |
| 20260906051603 | 76 | 0 | 0.0 | 0.0 | 0.00 | 0.00 | 0.00 | 42 | 1012.8 |
| 20260906050122 | 76 | 0 | 0.0 | 1.0 | 0.00 | 0.00 | 0.00 | 41 | 1012.8 |
| 20260906044559 | 76 | 0 | 0.0 | 0.0 | 0.00 | 0.00 | 0.00 | 41 | 1012.9 |
| 20260906043103 | 76 | 0 | 0.0 | 0.0 | 0.00 | 0.00 | 0.00 | 42 | 1012.8 |
| 20260906041601 | 77 | 0 | 0.0 | 0.0 | 0.00 | 0.00 | 0.00 | 41 | 1012.9 |
| 20260906040128 | 77 | 0 | 0.0 | 0.0 | 0.00 | 0.00 | 0.00 | 40 | 1012.7 |
| 20260906034557 | 78 | 0 | 0.0 | 1.0 | 0.00 | 0.00 | 0.00 | 38 | 1012.7 |
| 20260906033110 | 79 | 0 | 0.0 | 1.0 | 0.00 | 0.00 | 0.00 | 36 | 1012.6 |
| 20260906031601 | 79 | 0 | 0.0 | 2.0 | 0.00 | 0.00 | 0.00 | 37 | 1012.5 |
| 20260906024617 | 80 | 316 | 0.0 | 2.0 | 0.00 | 0.00 | 0.00 | 33 | 1012.3 |
| 20260906023101 | 81 | 354 | 1.0 | 3.0 | 0.00 | 0.00 | 0.00 | 31 | 1012.2 |
| 20260906021558 | 82 | 310 | 0.0 | 3.0 | 0.00 | 0.00 | 0.00 | 28 | 1012.1 |
| 20260906020105 | 83 | 0 | 0.0 | 4.0 | 0.00 | 0.00 | 0.00 | 29 | 1012.2 |
| 20260906014609 | 84 | 303 | 1.0 | 4.0 | 0.00 | 0.00 | 0.00 | 28 | 1012.2 |
| 20260906013057 | 87 | 294 | 0.0 | 4.0 | 0.00 | 0.00 | 0.00 | 29 | 1012.1 |
| 20260906011602 | 88 | 311 | 2.0 | 5.0 | 0.00 | 0.00 | 0.00 | 30 | 1012.1 |
| 20260906010056 | 89 | 304 | 2.0 | 4.0 | 0.00 | 0.00 | 0.00 | 30 | 1012.0 |
| 20260906004600 | 91 | 254 | 1.0 | 5.0 | 0.00 | 0.00 | 0.00 | 30 | 1011.9 |
| 20260906003059 | 91 | 309 | 2.0 | 6.0 | 0.00 | 0.00 | 0.00 | 29 | 1011.8 |
| 20260906001607 | 92 | 311 | 3.0 | 6.0 | 0.00 | 0.00 | 0.00 | 27 | 1011.9 |
| 20260906000112 | 93 | 241 | 3.0 | 7.0 | 0.00 | 0.00 | 0.00 | 26 | 1011.9 |